Location: Ambatotampy
(18.8181°S, 47.6186°E)
Time: 00:01:50
(UTC+00:00)

Maqsat-H - Pass Details

Date: 21 January 2021
Orbit: 559 x 26415 km, 7.8° (Epoch: 24 February)

Event Time Altitude Azimuth Distance (km) Brightness Sun altitude
Exits shadow 00:50:59 16° 357° (N) 2,495 4.3 -21.6°
Maximum altitude 00:54:15 21° 34° (NE) 2,951 5.0 -20.9°
Drops below altitude 10° 01:06:17 10° 78° (ENE) 7,230 7.6 -18.5°
Sets 01:23:54 0° 89° (E) 12,953 9.4 -14.8°
